[[{"header":{"parameterUnit":"m.s-1","parameterCategory":1,"la1":30.2991,"la2":30.254,"lo1":-89.0895,"lo2":-89.0444,"dx":0.0017,"dy":0.0017,"nx":28,"ny":28,"refTime":"2022-11-16T03:00:00:Z","depth":0,"parameterNumber":2,"parameterNumberName":"U-component_of_WINDS"},"data":[0,0,0,0,0,0,0,0,0,0,0,0,0,0,0,0,0,0,0,0,0,0,0,0,0,0,0,0,0,0,0,0,0,0,0,0,0,0,0,0,0,0,0,0,0,0,0,0,0,0,0,0,0,0,0,0,0,0,1.7132,1.7133,0,1.7156,1.7157,1.7157,1.7158,1.7158,1.7158,1.7158,1.7181,1.7182,1.7183,0,0,0,0,0,0,0,0,0,0,0,0,0,1.7087,1.7088,1.7132,1.7133,1.7133,1.7156,1.7157,1.7157,1.7158,1.7158,1.7158,1.7157,1.7181,1.7182,1.7183,0,0,0,0,0,0,0,0,0,0,0,0,0,1.7108,1.7088,1.7132,1.7136,1.7137,1.7156,1.7157,1.7157,1.7158,1.7158,1.7158,1.7157,1.718,1.7182,1.7183,1.7199,0,0,1.7187,1.7188,0,0,0,0,0,0,0,0,1.7107,1.711,1.7136,1.7136,1.7137,1.7154,1.7149,1.7171,1.7159,1.715,1.7158,1.7157,1.7172,1.7174,1.718,1.72,1.7201,1.7187,1.7188,1.7188,1.7189,0,0,0,0,0,0,0,1.7106,1.7109,1.7142,1.7136,1.7137,1.7137,1.714,1.7153,1.7163,1.7151,1.7151,1.7154,1.7173,1.7178,1.718,1.7202,1.7187,1.7188,1.7189,1.719,1.7238,1.7238,0,0,0,0,0,0,1.7104,1.7108,1.7141,1.7142,1.7121,1.7138,1.7141,1.7149,1.7163,1.7165,1.7154,1.7154,1.7176,1.7179,1.7181,1.7201,1.7188,1.719,1.719,1.7237,1.7238,1.7239,0,0,0,0,0,0,1.7103,1.7107,1.714,1.7125,1.713,1.7139,1.7148,1.715,1.7155,1.7166,1.7167,1.7158,1.7176,1.7179,1.7195,1.7202,1.719,1.7191,1.7237,1.7238,1.7238,1.7242,0,0,0,0,0,0,1.7101,1.7106,1.7112,1.7125,1.713,1.7154,1.7149,1.715,1.7158,1.7158,1.717,1.7172,1.7176,1.7193,1.7196,1.7204,1.7192,1.7236,1.7237,1.7238,1.7241,1.7243,1.7244,0,0,0,0,0,1.71,1.7112,1.7113,1.7117,1.7138,1.7154,1.7157,1.7162,1.7158,1.7165,1.7172,1.7171,1.7201,1.7195,1.7198,1.7206,1.7236,1.7237,1.7238,1.724,1.7242,1.7244,0,0,0,0,0,0,1.7099,1.7114,1.7115,1.7132,1.7142,1.7154,1.7162,1.7164,1.7174,1.7174,1.7179,1.7182,1.7198,1.7204,1.7196,1.7223,1.7218,1.722,1.7219,1.722,1.7222,1.722,1.7194,0,0,0,0,0,1.7101,1.7112,1.7125,1.7138,1.7144,1.7152,1.7159,1.7162,1.7173,1.7177,1.7185,1.7195,1.7206,1.7214,1.7225,1.7242,1.7245,1.725,1.7251,1.7252,1.7254,1.7264,1.7266,1.7242,1.7242,1.7242,0,0,1.7104,1.7114,1.7121,1.7139,1.7147,1.7159,1.7156,1.7168,1.7177,1.7179,1.7194,1.7201,1.7212,1.7229,1.7237,1.7234,1.7261,1.7254,1.7254,1.7255,1.7265,1.7267,1.7269,1.7243,1.7243,1.7243,0,0,1.7117,1.7126,1.7138,1.7147,1.716,1.7165,1.7169,1.7181,1.7186,1.7202,1.7204,1.7214,1.7234,1.7243,1.7249,1.7267,1.7267,1.7271,1.7277,1.7287,1.7289,1.7291,1.7297,1.7299,1.7272,1.7272,1.7272,0,1.712,1.7138,1.7144,1.7157,1.7165,1.7168,1.7181,1.7189,1.7205,1.721,1.7207,1.7233,1.7241,1.726,1.7265,1.727,1.7274,1.7269,1.7288,1.729,1.7292,1.7298,1.73,1.7272,1.7272,1.7272,1.7272,0,1.7141,1.7154,1.7162,1.7178,1.7187,1.72,1.7208,1.7217,1.722,1.7226,1.7242,1.7252,1.7266,1.7271,1.7273,1.7291,1.7289,1.7287,1.7282,1.7294,1.73,1.7302,1.7273,1.7273,1.7273,1.7273,0,0,1.7152,1.7173,1.7176,1.7183,1.7198,1.7208,1.7221,1.7235,1.7243,1.7254,1.7265,1.7282,1.7282,1.7289,1.7293,1.7302,1.7316,1.7299,1.73,1.7302,1.7335,1.7336,1.7338,1.7316,1.7317,1.7317,1.7334,0,1.7166,1.719,1.7197,1.7217,1.7229,1.7233,1.7245,1.7255,1.7262,1.7273,1.728,1.7293,1.7291,1.7296,1.7304,1.7312,1.7322,1.7311,1.7326,1.7327,1.7323,1.7341,1.7342,1.7357,1.7337,1.7337,1.7337,0,1.7186,1.7198,1.722,1.7234,1.7239,1.725,1.7264,1.7274,1.7287,1.7291,1.7301,1.7304,1.7318,1.7313,1.7333,1.7325,1.7332,1.7337,1.7338,1.7339,1.7332,1.7343,1.7363,1.7365,1.7341,1.7341,1.734,0,1.7192,1.7214,1.723,1.7236,1.7253,1.7261,1.7268,1.728,1.7288,1.7301,1.7306,1.732,1.7327,1.7338,1.7345,1.734,1.7364,1.7359,1.7368,1.7368,1.7372,1.7371,1.7393,1.7377,1.7377,1.7377,1.7377,0,1.7207,1.722,1.7233,1.7242,1.7257,1.7265,1.728,1.7288,1.7298,1.731,1.7314,1.7325,1.7334,1.7345,1.7351,1.7367,1.737,1.7374,1.7375,1.7373,1.7373,1.7377,1.7376,1.7378,1.7378,1.7377,1.7377,0,1.7215,1.7225,1.7242,1.7258,1.7262,1.7272,1.7285,1.7295,1.7303,1.7317,1.7321,1.7332,1.7346,1.7355,1.7373,1.7377,1.7394,1.7395,1.739,1.739,1.7398,1.7397,1.7423,1.7426,1.7409,1.7409,1.7409,0,1.7224,1.7234,1.7251,1.7259,1.7267,1.728,1.7289,1.7298,1.7307,1.7322,1.733,1.7345,1.7357,1.738,1.7389,1.7403,1.7404,1.7412,1.7406,1.7404,1.7404,1.7403,1.7404,1.7413,1.7413,1.7413,1.7413,0,1.7238,1.7242,1.7255,1.727,1.7281,1.7293,1.7304,1.7311,1.7322,1.7332,1.7347,1.7356,1.7375,1.739,1.7405,1.7412,1.7415,1.7416,1.7418,1.7416,1.7412,1.7414,1.7392,1.7415,1.7414,1.7414,1.7414,1.7414,1.7247,1.7256,1.727,1.7284,1.7294,1.7306,1.7316,1.7325,1.7338,1.7354,1.7358,1.7374,1.7387,1.7408,1.7416,1.7428,1.7427,1.7431,1.7432,1.7432,1.7433,1.7411,1.7431,1.7431,1.7431,1.7431,1.7431,0,1.7261,1.727,1.7283,1.73,1.7312,1.7314,1.7328,1.7337,1.7351,1.7363,1.7375,1.7393,1.7408,1.7419,1.7434,1.7442,1.7443,1.7445,1.7445,1.7446,1.7433,1.7429,1.7444,1.7444,1.7444,1.7444,1.7444,1.7444,1.7269,1.7286,1.7292,1.7314,1.7323,1.7339,1.7347,1.7357,1.7367,1.7387,1.7399,1.7407,1.7419,1.7435,1.7449,1.7452,1.7457,1.7459,1.7462,1.7449,1.7447,1.7446,1.7442,1.746,1.746,1.7474,1.7474,1.7474]},{"header":{"parameterUnit":"m.s-1","parameterCategory":1,"la1":30.2991,"la2":30.254,"lo1":-89.0895,"lo2":-89.0444,"dx":0.0017,"dy":0.0017,"nx":28,"ny":28,"refTime":"2022-11-16T03:00:00:Z","depth":0,"parameterNumber":3,"parameterNumberName":"V-component_of_WINDS"},"data":[0,0,0,0,0,0,0,0,0,0,0,0,0,0,0,0,0,0,0,0,0,0,0,0,0,0,0,0,0,0,0,0,0,0,0,0,0,0,0,0,0,0,0,0,0,0,0,0,0,0,0,0,0,0,0,0,0,0,-7.7923,-7.7924,0,-7.8054,-7.8056,-7.8057,-7.7986,-7.7982,-7.7978,-7.7975,-7.8104,-7.811,-7.8117,0,0,0,0,0,0,0,0,0,0,0,0,0,-7.7605,-7.7611,-7.7923,-7.7924,-7.7926,-7.8054,-7.8056,-7.8057,-7.7986,-7.7982,-7.7978,-7.7973,-7.8101,-7.8109,-7.8118,0,0,0,0,0,0,0,0,0,0,0,0,0,-7.774,-7.7613,-7.7922,-7.7906,-7.7906,-7.8053,-7.8056,-7.8058,-7.7987,-7.7982,-7.7976,-7.7971,-7.8099,-7.8109,-7.8119,-7.8288,0,0,-7.815,-7.8154,0,0,0,0,0,0,0,0,-7.7733,-7.7752,-7.7907,-7.7907,-7.7907,-7.7998,-7.7991,-7.8135,-7.7988,-7.7956,-7.7975,-7.7969,-7.8073,-7.8084,-7.8121,-7.8294,-7.83,-7.815,-7.8157,-7.8161,-7.8164,0,0,0,0,0,0,0,-7.7723,-7.7746,-7.7974,-7.7909,-7.791,-7.789,-7.7904,-7.8018,-7.8042,-7.7958,-7.7954,-7.797,-7.8072,-7.8111,-7.8123,-7.8302,-7.815,-7.8159,-7.8165,-7.8169,-7.8621,-7.8627,0,0,0,0,0,0,-7.7716,-7.7739,-7.797,-7.7978,-7.7805,-7.79,-7.7915,-7.7974,-7.8041,-7.8046,-7.7975,-7.7967,-7.8096,-7.8111,-7.8127,-7.833,-7.8161,-7.817,-7.8176,-7.8615,-7.8622,-7.8629,0,0,0,0,0,0,-7.7709,-7.7737,-7.7965,-7.7857,-7.7885,-7.7912,-7.7978,-7.798,-7.8019,-7.8054,-7.8057,-7.8011,-7.8093,-7.8113,-7.8249,-7.8334,-7.8175,-7.8184,-7.8608,-7.8617,-7.8625,-7.8738,0,0,0,0,0,0,-7.77,-7.7735,-7.7801,-7.7859,-7.7891,-7.8086,-7.7984,-7.7986,-7.8037,-7.8028,-7.8088,-7.8093,-7.809,-7.8235,-7.8259,-7.8345,-7.8192,-7.8601,-7.8612,-7.8623,-7.8727,-7.875,-7.8769,0,0,0,0,0,-7.7689,-7.7826,-7.7805,-7.7833,-7.7974,-7.8091,-7.8109,-7.8105,-7.8045,-7.811,-7.8133,-7.8091,-7.8321,-7.8249,-7.8276,-7.8366,-7.8595,-7.8609,-7.8622,-7.8717,-7.8745,-7.8769,0,0,0,0,0,0,-7.7774,-7.7833,-7.781,-7.797,-7.8027,-7.8079,-7.8162,-7.8134,-7.8207,-7.8195,-7.8184,-7.8199,-7.834,-7.8367,-7.8286,-7.8534,-7.8448,-7.8468,-7.8512,-7.8538,-7.8559,-7.855,-7.82,0,0,0,0,0,-7.7812,-7.7905,-7.795,-7.8087,-7.8117,-7.8135,-7.8186,-7.8178,-7.8235,-7.8258,-7.829,-7.8345,-7.843,-7.8485,-7.8565,-7.873,-7.8742,-7.8806,-7.8827,-7.8844,-7.8861,-7.895,-7.8979,-7.8672,-7.8672,-7.8672,0,0,-7.789,-7.7934,-7.7992,-7.8105,-7.8148,-7.8242,-7.8155,-7.8258,-7.8328,-7.8272,-7.8404,-7.8429,-7.849,-7.8642,-7.871,-7.8668,-7.8948,-7.8861,-7.8875,-7.8882,-7.8967,-7.8996,-7.9022,-7.8681,-7.868,-7.8678,0,0,-7.8081,-7.8124,-7.8243,-7.8288,-7.8355,-7.8366,-7.8395,-7.8453,-7.8468,-7.86,-7.8561,-7.8642,-7.8788,-7.8834,-7.8876,-7.9086,-7.9051,-7.9112,-7.9222,-7.931,-7.9334,-7.9355,-7.943,-7.9457,-7.9129,-7.9129,-7.9129,0,-7.8169,-7.8312,-7.8307,-7.8414,-7.8464,-7.8421,-7.8541,-7.8584,-7.8673,-7.8708,-7.8661,-7.8844,-7.8882,-7.9044,-7.9095,-7.9131,-7.9162,-7.9105,-7.9331,-7.9353,-7.9372,-7.9443,-7.9472,-7.9136,-7.9135,-7.9134,-7.9134,0,-7.8417,-7.8516,-7.8604,-7.8694,-7.8754,-7.8867,-7.8877,-7.8939,-7.8926,-7.8942,-7.9077,-7.9121,-7.921,-7.9247,-7.9235,-7.9408,-7.938,-7.9332,-7.9246,-7.9409,-7.9475,-7.9503,-7.9146,-7.9143,-7.9141,-7.914,0,0,-7.8663,-7.8751,-7.8783,-7.8823,-7.8894,-7.897,-7.9081,-7.917,-7.9222,-7.9285,-7.9377,-7.9503,-7.9459,-7.9507,-7.9499,-7.9576,-7.974,-7.9519,-7.952,-7.9558,-7.9933,-7.9969,-8.0,-7.9717,-7.9722,-7.9726,-7.9928,0,-7.8859,-7.9055,-7.9054,-7.9235,-7.9326,-7.9287,-7.9383,-7.9437,-7.9455,-7.9534,-7.9553,-7.9642,-7.9578,-7.9607,-7.9682,-7.9704,-7.9815,-7.969,-7.9801,-7.9805,-7.9787,-8.0035,-8.0073,-8.0261,-7.9954,-7.9959,-7.9962,0,-7.9113,-7.9187,-7.9377,-7.9436,-7.9475,-7.9562,-7.9643,-7.972,-7.9779,-7.9787,-7.9842,-7.9822,-7.9933,-7.9845,-7.9997,-7.9912,-7.9958,-7.9976,-7.9983,-7.9993,-7.9893,-8.0051,-8.0321,-8.0349,-8.0003,-7.9999,-7.9996,0,-7.9274,-7.9421,-7.9554,-7.959,-7.9662,-7.9724,-7.9756,-7.9811,-7.9865,-7.9935,-7.997,-8.0052,-8.0097,-8.016,-8.0162,-8.0098,-8.0317,-8.0228,-8.0325,-8.0325,-8.0372,-8.0369,-8.0653,-8.0403,-8.0402,-8.0401,-8.0401,0,-7.9492,-7.961,-7.9628,-7.971,-7.984,-7.9838,-7.9967,-7.9993,-8.0042,-8.0127,-8.0098,-8.0178,-8.0177,-8.0258,-8.0261,-8.0387,-8.0407,-8.0415,-8.0414,-8.0418,-8.0417,-8.0447,-8.0434,-8.0409,-8.0407,-8.0406,-8.0405,0,-7.9694,-7.9711,-7.9853,-7.9911,-7.9928,-8.0022,-8.007,-8.0147,-8.0163,-8.0271,-8.0296,-8.0321,-8.0415,-8.0425,-8.0533,-8.0535,-8.0687,-8.0672,-8.0668,-8.0666,-8.0762,-8.0753,-8.1075,-8.1117,-8.084,-8.0842,-8.0844,0,-7.9832,-7.9922,-7.9991,-8.0047,-8.0083,-8.0174,-8.0229,-8.023,-8.0289,-8.0364,-8.0432,-8.0524,-8.0597,-8.075,-8.0776,-8.0859,-8.0846,-8.0953,-8.0858,-8.0859,-8.0847,-8.0842,-8.0851,-8.0971,-8.0974,-8.0976,-8.0978,0,-8.0076,-8.008,-8.0162,-8.0248,-8.0315,-8.0382,-8.0445,-8.0492,-8.05,-8.0567,-8.0665,-8.0722,-8.0835,-8.0926,-8.1008,-8.1039,-8.1011,-8.1009,-8.1035,-8.104,-8.1033,-8.1038,-8.0718,-8.1001,-8.0999,-8.0997,-8.0996,-8.0995,-8.025,-8.0328,-8.0389,-8.0482,-8.0529,-8.0589,-8.0665,-8.0692,-8.0774,-8.0867,-8.0862,-8.0969,-8.1026,-8.1134,-8.1171,-8.1254,-8.1218,-8.1257,-8.1267,-8.1276,-8.1286,-8.1021,-8.1269,-8.1268,-8.1268,-8.1267,-8.1267,0,-8.0491,-8.0529,-8.0615,-8.0704,-8.0777,-8.0746,-8.0814,-8.0877,-8.0972,-8.1029,-8.1103,-8.1215,-8.1304,-8.1338,-8.1424,-8.1484,-8.1473,-8.1506,-8.1502,-8.1509,-8.1314,-8.1282,-8.1514,-8.1514,-8.1514,-8.1514,-8.1514,-8.1514,-8.0626,-8.0758,-8.0769,-8.0924,-8.096,-8.1067,-8.1109,-8.1163,-8.1208,-8.1336,-8.141,-8.1433,-8.148,-8.157,-8.165,-8.1657,-8.169,-8.173,-8.1732,-8.1548,-8.1523,-8.1499,-8.1469,-8.1737,-8.1737,-8.192,-8.1922,-8.1923]}]]